sat.trackr.live / text

‹ back to catalog

STARLINK-30181

NORAD 57444 · 2023-105Q

PAYLOAD ACTIVE UNKNOWN

§ Identity

Operator
Country
US
Launch date
2023-07-24
Launch site
AFETR
Launch vehicle
Mass (kg)
RCS (m²)

Purposes: comms

External: N2YO · Heavens-Above · Gunter

§ Orbital elements

Epoch: 2026-05-25T03:11:05.864928Z

Period
94.26 min
Inclination
43.0092°
Eccentricity
0.0005483
Mean motion
15.27684977 rev/d
Perigee alt
479.0 km
Apogee alt
486.5 km
Semi-major
6,860.9 km
B*
-1.0412e-3
RAAN
191.4702°
Arg perigee
273.0986°
Mean anomaly
86.9239°
Rev number
15,729

§ Raw data

STARLINK-301811 57444U 23105Q   26145.13270677 -.00028910  00000+0 -10412-2 0  99972 57444  43.0092 191.4702 0005483 273.0986  86.9239 15.27684977157290

JSON: /api/v1/satellites/57444 · /tle

For live sub-satellite position, see the globe view (requires WebGL).

§ Visibility from observer

Set your observer location to see the next 7 days of passes ≥ 10°. The values pass through the URL so the page stays shareable.

No JS? Fill the form by hand. The geolocation button needs JavaScript.